Flag for Kazakhstan Weather past 2 weeks in Astana, Kazakhstan

Now
1 °F

Sunny.


Feels Like: -6 °F
Forecast: -14 / 5 °F
Wind: 3 mph from East

Location: Astana

Current Time: Jan 31, 2015 at 3:37:15 PM

Latest Report: Jan 31, 2015 at 3:00 PM


Visibility: 10 mi

Pressure: 30.27 "Hg

Humidity: 65%

Dew point: -8 °F

Location of AstanaLocation

Historic Weather in Astana — Graph

°F

Astana temperature yesterday

Maximum temperature yesterday: 3 °F (at 3:30 PM)
Minimum temperature yesterday: -20 °F (at 9:00 AM)
Average temperature yesterday: -11 °F

Past Weeks' High & Low Weather Summary

 TemperatureHumidityPressure
High30 °F (Jan 16, 2:30 PM)100% (Jan 19, 7:00 AM)30.89 "Hg (Jan 19, 7:00 AM)
Low-35 °F (Jan 25, 2:30 AM)58% (Jan 29, 12:00 PM)29.83 "Hg (Jan 20, 10:30 PM)
Average-5 °F76%30.37 "Hg
* Reported Jan 16 2:00 PM — Jan 31 2:30 PM, Astana, Weather by CustomWeather, © 2014

Note: Actual official high and low records may vary slightly from our data, if they occured in-between our weather recording intervals... More about our weather records

Advertising

Astana weather history for previous 24 hours

 ConditionsComfort  
Time TempWeatherWind HumidityBarometerVisibility
2:30 PM
Jan 31
0 °FPassing clouds.3 mph65%30.27 "HgN/A
2:00 PM-2 °FSunny.3 mph65%30.27 "Hg10 mi
1:30 PM-2 °FSunny.6 mph59%30.30 "Hg10 mi
1:00 PM-4 °FSunny.8 mph65%30.30 "Hg10 mi
12:30 PM-6 °FSunny.8 mph64%30.30 "Hg10 mi
12:00 PM-9 °FSunny.6 mph70%30.30 "Hg10 mi
11:30 AM-11 °FSunny.6 mph70%30.30 "Hg10 mi
11:00 AM-13 °FSunny.6 mph69%30.30 "Hg10 mi
10:30 AM-13 °FSunny.3 mph69%30.30 "Hg10 mi
10:00 AM-17 °FSunny.3 mph76%30.30 "Hg10 mi
9:00 AM-17 °FClear.6 mph76%30.30 "Hg10 mi
8:30 AM-17 °FClear.6 mph76%30.30 "Hg10 mi
8:00 AM-13 °FClear.8 mph76%30.30 "Hg10 mi
7:30 AM-13 °FClear.8 mph76%30.30 "Hg10 mi
7:00 AM-15 °FClear.1 mph76%30.30 "Hg10 mi
6:30 AM-15 °FClear.6 mph76%30.30 "Hg10 mi
6:00 AM-17 °FClear.8 mph76%30.30 "Hg10 mi
5:30 AM-17 °FClear.6 mph76%30.30 "Hg10 mi
5:00 AM-15 °FPassing clouds.6 mph76%30.30 "Hg4 mi
4:30 AM-15 °FClear.6 mph69%30.30 "Hg10 mi
4:00 AM-11 °FClear.6 mph70%30.30 "Hg10 mi
3:30 AM-13 °FClear.6 mph76%30.30 "Hg10 mi
3:00 AM-11 °FClear.6 mph76%30.30 "Hg10 mi
2:30 AM-13 °FClear.3 mph76%30.30 "Hg10 mi
2:00 AM-13 °FClear.6 mph76%30.30 "Hg10 mi
1:30 AM-9 °FPassing clouds.6 mph77%30.33 "Hg5 mi
1:00 AM-11 °FClear.10 mph76%30.33 "Hg10 mi
12:30 AM-9 °FClear.8 mph84%30.33 "Hg10 mi
12:00 AM-11 °FClear.8 mph76%30.33 "Hg10 mi
11:30 PM
Jan 30
-13 °FClear.6 mph76%30.33 "Hg10 mi
11:00 PM-11 °FClear.3 mph84%30.33 "Hg10 mi
10:30 PM-13 °FClear.3 mph76%30.33 "Hg10 mi
10:00 PM-13 °FClear.8 mph76%30.33 "Hg10 mi
9:30 PM-13 °FClear.10 mph76%30.33 "Hg10 mi
9:00 PM-11 °FClear.8 mph76%30.36 "Hg10 mi
8:30 PM-11 °FClear.6 mph76%30.36 "Hg10 mi
8:00 PM-9 °FClear.6 mph77%30.36 "Hg10 mi
7:30 PM-8 °FClear.6 mph77%30.36 "Hg10 mi
7:00 PM-4 °FClear.3 mph71%30.36 "Hg10 mi
6:30 PM-4 °FSunny.1 mph77%30.36 "Hg10 mi
6:00 PM-4 °FSunny.3 mph77%30.36 "Hg10 mi
5:30 PM-2 °FSunny.3 mph65%30.36 "Hg10 mi
5:00 PM1 °FSunny.1 mph65%30.36 "Hg10 mi
4:30 PM1 °FSunny.No wind65%30.36 "Hg10 mi
4:00 PM1 °FSunny.1 mph60%30.36 "Hg10 mi
3:30 PM3 °FSunny.No wind60%30.36 "Hg10 mi
3:00 PM1 °FSunny.1 mph60%30.36 "Hg10 mi
Weather by CustomWeather, © 2014

See weather overviewHow to use our weather pages